FW3054 Weather Reports


time (UTC)temp
F
wind
direction
speed
knots
gust
knots
rain 1hr
in
rain 24hr
in
rain mn
in
humidity
%
barometer
mb
20260901203516 91 23 0.9 3.5 0.00 0.00 0.00 49 1021.9
20260901202516 91 23 0.9 1.7 0.00 0.00 0.00 49 1021.8
20260901201536 91 23 1.7 2.6 0.00 0.00 0.00 50 1022.0
20260901200557 91 45 0.9 5.2 0.00 0.00 0.00 51 1022.1
20260901195516 91 23 1.7 4.3 0.00 0.00 0.00 49 1022.1
20260901194516 91 23 0.9 4.3 0.00 0.00 0.00 51 1022.2
20260901193516 91 23 1.7 4.3 0.00 0.00 0.00 51 1022.3
20260901192516 91 23 1.7 3.5 0.00 0.00 0.00 50 1022.3
20260901191516 91 23 0.9 1.7 0.00 0.00 0.00 50 1022.4
20260901190516 90 0 1.7 3.5 0.00 0.00 0.00 50 1022.6
20260901185516 91 23 1.7 3.5 0.00 0.00 0.00 49 1022.7
20260901184516 91 0 0.9 3.5 0.00 0.00 0.00 50 1022.7
20260901183516 90 23 0.9 2.6 0.00 0.00 0.00 50 1022.9
20260901182516 89 23 1.7 2.6 0.00 0.00 0.00 50 1022.8
20260901181516 89 23 1.7 4.3 0.00 0.00 0.00 51 1022.9
20260901180516 89 23 0.9 3.5 0.00 0.00 0.00 51 1023.1
20260901175516 89 0.0 1.7 0.00 0.00 0.00 55 1023.0
20260901174516 89 23 1.7 3.5 0.00 0.00 0.00 54 1023.1
20260901173516 89 0 1.7 4.3 0.00 0.00 0.00 55 1023.1
20260901172516 88 23 1.7 4.3 0.00 0.00 0.00 54 1023.1
20260901171516 88 23 1.7 3.5 0.00 0.00 0.00 55 1023.2
20260901170516 87 0 0.9 1.7 0.00 0.00 0.00 59 1023.4
20260901165515 86 23 0.9 1.7 0.00 0.00 0.00 60 1023.4
20260901164516 86 23 0.9 2.6 0.00 0.00 0.00 64 1023.7
20260901163516 85 0 1.7 3.5 0.00 0.00 0.00 64 1023.8
20260901162516 84 23 1.7 3.5 0.00 0.00 0.00 66 1023.7
20260901161515 83 23 1.7 3.5 0.00 0.00 0.00 66 1023.8
20260901160516 83 23 0.9 1.7 0.00 0.00 0.00 68 1024.0
20260901155535 82 0.0 0.9 0.00 0.00 0.00 72 1023.9
20260901154515 81 0.0 0.0 0.00 0.00 0.00 75 1024.1
20260901153515 80 0.0 0.0 0.00 0.00 0.00 77 1024.4
20260901152516 80 0.0 0.9 0.00 0.00 0.00 79 1024.2
20260901151516 79 0.0 1.7 0.00 0.00 0.00 79 1024.2
20260901150517 78 0.0 0.9 0.00 0.00 0.00 83 1024.2
20260901145515 77 0.0 0.9 0.00 0.00 0.00 83 1024.2
20260901144515 76 0.0 1.7 0.00 0.00 0.00 84 1024.1
20260901143515 75 0.0 0.0 0.00 0.00 0.00 86 1024.0
20260901142515 74 0.0 0.9 0.00 0.00 0.00 88 1024.0
20260901141515 73 0.0 0.0 0.00 0.00 0.00 89 1023.9
20260901140516 72 0.0 0.0 0.00 0.00 0.00 90 1023.8
20260901135515 71 0.0 0.9 0.00 0.00 0.00 89 1023.7
20260901134515 71 0.0 0.0 0.00 0.00 0.00 87 1023.7
20260901133515 70 0.0 0.9 0.00 0.00 0.00 85 1023.7
20260901132515 70 0.0 0.0 0.00 0.00 0.00 84 1023.6
20260901131515 69 0.0 0.0 0.00 0.00 0.00 82 1023.8
20260901130515 69 0.0 0.0 0.00 0.00 0.00 81 1024.0
20260901125515 68 0.0 0.0 0.00 0.00 0.00 79 1023.8
20260901124535 68 0.0 0.0 0.00 0.00 0.00 78 1023.7
20260901123515 68 0.0 0.0 0.00 0.00 0.00 78 1023.8
20260901122516 67 0.0 0.0 0.00 0.00 0.00 79 1023.9
20260901121515 67 0.0 0.0 0.00 0.00 0.00 80 1023.9
20260901120515 67 0.0 0.0 0.00 0.00 0.00 80 1023.9
20260901115535 67 0.0 0.0 0.00 0.00 0.00 80 1023.8
20260901114517 66 0.0 0.0 0.00 0.00 0.00 80 1023.5
20260901113517 66 0.0 0.0 0.00 0.00 0.00 81 1023.5
20260901112517 66 0.0 0.0 0.00 0.00 0.00 81 1023.4
20260901111517 66 0.0 0.0 0.00 0.00 0.00 81 1023.3
20260901110515 66 0.0 0.0 0.00 0.00 0.00 82 1023.1
20260901105517 66 0.0 0.0 0.00 0.00 0.00 83 1023.1
20260901104537 66 0.0 0.0 0.00 0.00 0.00 83 1023.0
20260901103517 66 0.0 0.0 0.00 0.00 0.00 84 1022.9
20260901102537 67 0.0 0.0 0.00 0.00 0.00 83 1022.8
20260901101517 67 0.0 0.0 0.00 0.00 0.00 83 1022.9
20260901100517 67 0.0 0.0 0.00 0.00 0.00 83 1022.8
20260901095517 67 0.0 0.0 0.00 0.00 0.00 83 1022.7
20260901094517 67 0.0 0.0 0.00 0.00 0.00 84 1022.6
20260901093517 67 0.0 0.0 0.00 0.00 0.00 84 1022.6
20260901092517 67 0.0 0.0 0.00 0.00 0.00 85 1022.7
20260901091517 67 0.0 0.0 0.00 0.00 0.00 84 1022.7
20260901090517 67 0.0 0.0 0.00 0.00 0.00 83 1022.8
20260901085517 68 0.0 0.0 0.00 0.00 0.00 83 1022.9
20260901084517 68 0.0 0.0 0.00 0.00 0.00 82 1023.1
20260901083517 67 0.0 0.0 0.00 0.00 0.00 83 1023.2
20260901082537 67 0.0 0.0 0.00 0.00 0.00 83 1023.3
20260901081517 67 0.0 0.0 0.00 0.00 0.00 84 1023.4
20260901080517 67 0.0 0.0 0.00 0.00 0.00 85 1023.6
20260901075517 68 0.0 0.0 0.00 0.00 0.00 85 1023.5
20260901074537 68 0.0 0.0 0.00 0.00 0.00 85 1023.5
20260901073517 68 0.0 0.0 0.00 0.00 0.00 85 1023.5
20260901072517 68 0.0 0.0 0.00 0.00 0.00 85 1023.5
20260901071557 68 0.0 0.0 0.00 0.00 0.00 86 1023.6
20260901070517 68 0.0 0.0 0.00 0.00 0.00 85 1023.6
20260901065517 68 0.0 0.0 0.00 0.00 0.00 86 1023.6
20260901064517 68 0.0 0.0 0.00 0.00 0.00 87 1023.5
20260901063517 68 0.0 0.0 0.00 0.00 0.00 87 1023.6
20260901062517 68 0.0 0.0 0.00 0.00 0.00 87 1023.7
20260901061557 68 0.0 0.0 0.00 0.00 0.00 88 1023.7
20260901060536 68 0.0 0.0 0.00 0.00 0.00 88 1023.7
20260901055517 69 0.0 0.0 0.00 0.00 0.00 88 1023.7
20260901054517 69 0.0 0.0 0.00 0.00 0.00 89 1023.9
20260901053518 69 0.0 0.0 0.00 0.00 0.00 89 1023.6
20260901052516 69 0.0 0.0 0.00 0.00 0.00 89 1023.7
20260901051516 69 0.0 0.0 0.00 0.00 0.00 89 1023.7
20260901050516 69 0.0 0.0 0.00 0.00 0.00 89 1023.8
20260901045516 69 0.0 0.0 0.00 0.00 0.00 89 1023.8
20260901044517 70 0.0 0.0 0.00 0.00 0.00 90 1023.9
20260901043516 70 0.0 0.0 0.00 0.00 0.00 90 1023.6
20260901042516 70 0.0 0.0 0.00 0.00 0.00 90 1023.4
20260901040517 71 0.0 0.0 0.00 0.00 0.00 90 1023.3
20260901035536 71 0.0 0.0 0.00 0.00 0.00 90 1023.2
20260901034517 71 0.0 0.0 0.00 0.00 0.00 90 1023.2
20260901033517 71 0.0 0.0 0.00 0.00 0.00 89 1022.8
20260901032517 72 0.0 0.0 0.00 0.00 0.00 89 1022.9
20260901031517 72 0.0 0.0 0.00 0.00 0.00 89 1022.9
20260901030537 72 0.0 0.0 0.00 0.00 0.00 89 1022.7
20260901025516 73 0.0 0.0 0.00 0.00 0.00 89 1022.6
20260901024517 73 0.0 0.0 0.00 0.00 0.00 88 1022.8
20260901023516 73 0.0 0.0 0.00 0.00 0.00 88 1022.6
20260901022537 73 0.0 0.0 0.00 0.00 0.00 88 1022.7
20260901021536 74 0.0 0.0 0.00 0.00 0.00 88 1022.4
20260901020516 74 0.0 0.0 0.00 0.00 0.00 88 1022.4
20260901015516 74 0.0 0.0 0.00 0.00 0.00 87 1022.3
20260901014517 74 0.0 0.0 0.00 0.00 0.00 87 1022.4
20260901013517 74 0.0 0.0 0.00 0.00 0.00 87 1022.2
20260901012537 74 0.0 0.0 0.00 0.00 0.00 86 1022.0
20260901011516 75 0.0 0.0 0.00 0.00 0.00 86 1021.7
20260901010516 75 0.0 0.0 0.00 0.00 0.00 85 1021.7
20260901005516 75 0.0 0.0 0.00 0.00 0.00 85 1021.6
20260901004516 76 0.0 0.0 0.00 0.00 0.00 84 1021.5
20260901003516 77 0.0 0.0 0.00 0.00 0.00 83 1021.4
20260901002516 77 0.0 0.0 0.00 0.00 0.00 82 1021.3
20260901001516 78 0.0 0.0 0.00 0.00 0.00 81 1021.6
20260901000516 79 0.0 0.0 0.00 0.00 0.00 80 1021.5
20260831235517 79 0.0 0.0 0.00 0.00 0.00 79 1021.5
20260831234517 80 0.0 0.0 0.00 0.00 0.00 77 1021.7
20260831233536 81 0.0 0.0 0.00 0.00 0.00 76 1021.7
20260831232516 81 0.0 0.0 0.00 0.00 0.00 74 1021.7
20260831231516 81 0.0 0.0 0.00 0.00 0.00 74 1021.8
20260831230516 82 0.0 0.0 0.00 0.00 0.00 72 1021.9
20260831225516 82 0.0 0.9 0.00 0.00 0.00 72 1021.9
20260831224516 82 0.0 0.0 0.00 0.00 0.00 71 1021.8
20260831223516 82 0.0 0.0 0.00 0.00 0.00 70 1021.9
20260831222516 83 0.0 0.0 0.00 0.00 0.00 71 1021.9
20260831221516 83 0.0 0.0 0.00 0.00 0.00 68 1021.9
20260831220536 83 0.0 0.0 0.00 0.00 0.00 68 1021.9
20260831215536 83 0.0 0.9 0.00 0.00 0.00 68 1022.0
20260831214516 83 0.0 0.9 0.00 0.00 0.00 67 1021.9
20260831213516 83 0.0 0.9 0.00 0.00 0.00 67 1022.1
20260831212516 84 0.0 0.9 0.00 0.00 0.00 67 1022.1
20260831211516 84 0.0 0.9 0.00 0.00 0.00 66 1022.1
20260831210516 84 135 0.9 1.7 0.00 0.00 0.00 66 1021.9
20260831205516 84 135 0.9 1.7 0.00 0.00 0.00 66 1022.0
20260831204516 85 135 0.9 1.7 0.00 0.00 0.00 67 1022.2